Tyler, TX

6:46 AM CDT on March 23, 2017 (GMT -0500)
Tyler Pounds

Weather History for KTYR - January, 2013

Change the Weather History Date:

Saturday, January 12, 2013

  Actual Average Record
Temperature  
Mean Temperature 56 °F 46 °F  
Max Temperature 72 °F 56 °F 80 °F (2017)
Min Temperature 39 °F 37 °F 0 °F (1918)
Degree Days  
Heating Degree Days 9 19  
Month to date heating degree days 205 228  
Since 1 July heating degree days 941 1129  
Cooling Degree Days 0 0  
Month to date cooling degree days 0 0  
Year to date cooling degree days 0 0  
Growing Degree Days 6 (Base 50)    
Moisture  
Dew Point 58 °F    
Average Humidity 92    
Maximum Humidity 100    
Minimum Humidity 84    
Precipitation  
Precipitation 0.50 in 0.09 in 1.66 in (1939)
Month to date precipitation 2.97 1.25  
Year to date precipitation 2.97 1.25  
Snow  
Snow 0.00 in - - ()
Month to date snowfall 0.0  
Since 1 July snowfall 1.0  
Snow Depth 0.00 in    
Sea Level Pressure  
Sea Level Pressure 29.80 in    
Wind  
Wind Speed 12 mph (SSW)    
Max Wind Speed 23 mph    
Max Gust Speed 32 mph    
Visibility 8 miles    
Events Rain , Thunderstorm    
T = Trace of Precipitation, MM = Missing Value Source: NWS Daily Summary

Daily Weather History Graph

Daily Weather History Graph

Search for Another Location

Airport or City:

Trip Planner

Search our weather history database for the weather conditions in past years. The results will help you decide how hot, cold, wet, or windy it might be!

Date:

Astronomy

Jan. 12, 2013 Rise Set
Actual Time 7:23 AM CST 5:36 PM CST
Civil Twilight 6:56 AM CST 6:03 PM CST
Nautical Twilight 6:26 AM CST 6:33 PM CST
Astronomical Twilight 5:57 AM CST 7:03 PM CST
Moon 7:48 AM CST (1/12) 6:59 PM CST (1/12)
Length of Visible Light 11h 06m
Length of Day
10h 13m
New Moon, 1% of the Moon is Illuminated
Jan 12
New Moon
Jan 18
First Quarter
Jan 26
Full
Feb 3
Last Quarter
Feb 10
New

Hourly Weather History & Observations

Time (CST) Temp. Windchill Dew Point Humidity Pressure Visibility Wind Dir Wind Speed Gust Speed Precip Events Conditions
12:53 AM 64.9 °F - 60.1 °F 84% 29.88 in 10.0 mi South 8.1 mph - N/A   Overcast
1:53 AM 64.9 °F - 61.0 °F 87% 29.87 in 10.0 mi South 10.4 mph - N/A   Overcast
2:53 AM 64.9 °F - 61.0 °F 87% 29.86 in 10.0 mi SSE 5.8 mph - N/A   Overcast
3:53 AM 64.9 °F - 63.0 °F 93% 29.84 in 9.0 mi South 6.9 mph - 0.00 in   Overcast
4:05 AM 64.4 °F - 62.6 °F 94% 29.85 in 7.0 mi South 5.8 mph - 0.00 in Rain Light Rain
4:36 AM 64.4 °F - 62.6 °F 94% 29.84 in 2.0 mi South 6.9 mph - 0.01 in Rain Light Rain
4:53 AM 64.0 °F - 63.0 °F 96% 29.82 in 1.8 mi SSE 6.9 mph - 0.01 in   Overcast
5:23 AM 64.4 °F - 62.6 °F 94% 29.81 in 2.0 mi SSE 9.2 mph - N/A   Overcast
5:34 AM 64.4 °F - 62.6 °F 94% 29.81 in 1.5 mi SSE 11.5 mph - N/A   Overcast
5:53 AM 64.9 °F - 63.0 °F 93% 29.79 in 2.0 mi SSE 10.4 mph - N/A   Overcast
6:03 AM 64.4 °F - 62.6 °F 94% 29.80 in 4.0 mi SSE 10.4 mph - N/A   Overcast
6:29 AM 64.4 °F - 64.4 °F 100% 29.81 in 2.5 mi SSE 9.2 mph - N/A   Overcast
6:53 AM 64.9 °F - 64.0 °F 97% 29.81 in 2.0 mi SSE 8.1 mph - N/A   Overcast
7:32 AM 66.2 °F - 64.4 °F 94% 29.83 in 3.0 mi South 4.6 mph - 0.00 in   Overcast
7:53 AM 66.0 °F - 64.9 °F 96% 29.83 in 6.0 mi South 4.6 mph - 0.00 in   Overcast
8:15 AM 68.0 °F - 66.2 °F 94% 29.84 in 8.0 mi South 6.9 mph - N/A   Overcast
8:53 AM 69.1 °F - 66.9 °F 93% 29.83 in 9.0 mi South 10.4 mph - N/A   Overcast
9:11 AM 69.8 °F - 66.2 °F 88% 29.85 in 10.0 mi South 9.2 mph - N/A   Overcast
9:19 AM 69.8 °F - 66.2 °F 88% 29.85 in 10.0 mi South 10.4 mph - N/A   Overcast
9:53 AM 70.0 °F - 66.9 °F 90% 29.83 in 10.0 mi South 11.5 mph - 0.01 in Rain Light Rain
10:53 AM 71.1 °F - 66.9 °F 87% 29.80 in 10.0 mi South 9.2 mph - 0.01 in   Overcast
11:27 AM 71.6 °F - 66.2 °F 83% 29.80 in 10.0 mi South 12.7 mph 20.7 mph 0.01 in Rain Light Rain
11:53 AM 71.1 °F - 66.9 °F 87% 29.76 in 9.0 mi South 13.8 mph - 0.01 in Rain Light Rain
12:32 PM 71.6 °F - 66.2 °F 83% 29.76 in 10.0 mi South 13.8 mph - 0.00 in   Overcast
12:53 PM 72.0 °F - 66.9 °F 84% 29.73 in 10.0 mi South 12.7 mph - 0.00 in   Overcast
1:53 PM 72.0 °F - 66.0 °F 81% 29.71 in 10.0 mi South 18.4 mph 28.8 mph 0.00 in Rain Light Rain
2:10 PM 71.6 °F - 66.2 °F 83% 29.72 in 10.0 mi South 13.8 mph 23.0 mph N/A   Overcast
2:53 PM 72.0 °F - 66.0 °F 81% 29.70 in 10.0 mi South 15.0 mph 24.2 mph N/A   Overcast
3:04 PM 71.6 °F - 66.2 °F 83% 29.71 in 10.0 mi South 16.1 mph 25.3 mph N/A   Overcast
3:53 PM 72.0 °F - 66.0 °F 81% 29.69 in 10.0 mi South 17.3 mph - N/A   Overcast
4:53 PM 72.0 °F - 66.0 °F 81% 29.70 in 10.0 mi South 15.0 mph 23.0 mph N/A   Overcast
5:21 PM 71.6 °F - 66.2 °F 83% 29.71 in 10.0 mi South 10.4 mph 20.7 mph N/A   Overcast
5:53 PM 71.1 °F - 66.0 °F 84% 29.70 in 10.0 mi South 11.5 mph - N/A   Overcast
6:08 PM 71.6 °F - 66.2 °F 83% 29.72 in 10.0 mi SSW 10.4 mph - N/A   Overcast
6:50 PM 69.8 °F - 66.2 °F 88% 29.72 in 10.0 mi SSW 9.2 mph - 0.00 in   Overcast
7:03 PM 55.4 °F - 51.8 °F 88% 29.73 in 10.0 mi North 16.1 mph 26.5 mph 0.00 in Rain Light Rain
7:15 PM 53.6 °F - 50.0 °F 88% 29.78 in 10.0 mi NW 17.3 mph 26.5 mph 0.01 in Rain Light Rain
7:32 PM 50.0 °F - 48.2 °F 94% 29.77 in 1.8 mi NW 17.3 mph 26.5 mph 0.28 in Rain Heavy Rain
7:40 PM 50.0 °F - 48.2 °F 94% 29.79 in 2.0 mi NW 19.6 mph 25.3 mph 0.38 in Rain Heavy Rain
7:49 PM 48.2 °F - 46.4 °F 93% 29.80 in 7.0 mi NW 19.6 mph 25.3 mph 0.38 in Rain Light Rain
7:53 PM 48.0 °F - 46.0 °F 93% 29.78 in 10.0 mi NNW 17.3 mph 25.3 mph 0.38 in Rain Light Rain
8:07 PM 46.4 °F 39.5 °F 44.6 °F 93% 29.81 in 10.0 mi NNW 17.3 mph 27.6 mph 0.00 in Rain Light Rain
8:53 PM 44.1 °F 36.5 °F 41.0 °F 89% 29.83 in 10.0 mi NW 17.3 mph 27.6 mph 0.00 in   Overcast
9:53 PM 41.0 °F 34.3 °F 37.9 °F 89% 29.85 in 10.0 mi NNW 11.5 mph - 0.01 in   Overcast
10:15 PM 39.2 °F 31.6 °F 37.4 °F 93% 29.85 in 9.0 mi NNW 12.7 mph - 0.00 in Rain Light Rain
10:28 PM 39.2 °F 31.6 °F 37.4 °F 93% 29.87 in 10.0 mi NNW 12.7 mph 21.9 mph 0.00 in Rain Light Rain
10:53 PM 39.9 °F 32.1 °F 37.0 °F 89% 29.86 in 10.0 mi NNW 13.8 mph - 0.00 in Rain Light Rain
11:03 PM 39.2 °F 32.5 °F 37.4 °F 93% 29.88 in 10.0 mi NNW 10.4 mph - 0.01 in Rain , Thunderstorm Rain
11:20 PM 39.2 °F 30.8 °F 35.6 °F 87% 29.88 in 5.0 mi NW 15.0 mph - 0.06 in Rain , Thunderstorm Rain
11:33 PM 39.2 °F 32.0 °F 37.4 °F 93% 29.88 in 10.0 mi NW 11.5 mph - 0.07 in Rain Light Rain
11:53 PM 39.0 °F 31.4 °F 37.0 °F 93% 29.87 in 10.0 mi NNW 12.7 mph - 0.07 in   Overcast